Albany, NY

7:00 AM EDT on October 19, 2019 (GMT -0400)
Albany International

Weather History for KALB - August, 2019

Change the Weather History Date:

Thursday, August 8, 2019

  Actual Average Record
Temperature  
Mean Temperature 76 °F 71 °F  
Max Temperature 84 °F 82 °F 95 °F (1983)
Min Temperature 67 °F 61 °F 46 °F (1948)
Degree Days  
Heating Degree Days 0 0  
Month to date heating degree days 0 0  
Since 1 June heating degree days 27 57  
Since 1 July heating degree days 0 5  
Cooling Degree Days 11 7  
Month to date cooling degree days 71 56  
Year to date cooling degree days 577 422  
Since 1 June cooling degree days 555 392  
Growing Degree Days 25 (Base 50)    
Moisture  
Dew Point 64 °F    
Average Humidity 73    
Maximum Humidity 90    
Minimum Humidity 55    
Precipitation  
Precipitation 0.39 in 0.12 in 1.18 in (1975)
Month to date precipitation 1.62 1.00  
Year to date precipitation 26.48 23.69  
Sea Level Pressure  
Sea Level Pressure 29.68 in    
Wind  
Wind Speed 8 mph (SSW)    
Max Wind Speed 28 mph    
Max Gust Speed 37 mph    
Visibility 9 miles    
Events Rain , Thunderstorm    
T = Trace of Precipitation, MM = Missing Value Source: NWS Daily Summary

Daily Weather History Graph

Daily Weather History Graph

Search for Another Location

Airport or City:

Astronomy

Aug. 08, 2019 Rise Set
Actual Time 5:53 AM EDT 8:07 PM EDT
Civil Twilight 5:22 AM EDT 8:38 PM EDT
Nautical Twilight 4:43 AM EDT 9:16 PM EDT
Astronomical Twilight 4:01 AM EDT 9:59 PM EDT
Moon 2:40 PM EDT (8/8) 12:15 AM EDT (8/8)
Length of Visible Light 15h 15m
Length of Day
14h 13m
First Quarter, 60% of the Moon is Illuminated
Aug 8
First Quarter
Aug 15
Full
Aug 23
Last Quarter
Aug 30
New
Sep 5
First Quarter

Hourly Weather History & Observations

Time (EDT) Temp. Heat Index Dew Point Humidity Pressure Visibility Wind Dir Wind Speed Gust Speed Precip Events Conditions
12:51 AM 71.1 °F - 66.0 °F 84% 29.72 in 10.0 mi South 10.4 mph - 0.00 in Rain Light Rain
1:43 AM 71.1 °F - 66.0 °F 84% 29.71 in 10.0 mi South 8.1 mph - 0.00 in   Overcast
1:51 AM 71.1 °F - 66.0 °F 84% 29.70 in 10.0 mi South 11.5 mph - 0.00 in   Overcast
2:51 AM 71.1 °F - 66.9 °F 87% 29.70 in 10.0 mi South 9.2 mph - N/A   Overcast
3:47 AM 71.6 °F - 66.2 °F 83% 29.69 in 10.0 mi South 8.1 mph - N/A   Overcast
3:51 AM 71.1 °F - 66.0 °F 84% 29.69 in 10.0 mi South 8.1 mph - N/A   Overcast
4:51 AM 70.0 °F - 66.0 °F 87% 29.69 in 7.0 mi SSW 5.8 mph - 0.01 in Rain Light Rain
5:51 AM 69.1 °F - 64.9 °F 87% 29.70 in 8.0 mi SW 8.1 mph - 0.02 in Rain Light Rain
6:51 AM 69.1 °F - 66.0 °F 90% 29.70 in 10.0 mi South 6.9 mph - 0.01 in   Mostly Cloudy
7:35 AM 70.0 °F - 66.9 °F 90% 29.71 in 10.0 mi South 3.5 mph - N/A   Mostly Cloudy
7:51 AM 71.1 °F - 66.9 °F 87% 29.71 in 10.0 mi South 4.6 mph - N/A   Mostly Cloudy
8:51 AM 72.0 °F - 68.0 °F 87% 29.71 in 10.0 mi South 6.9 mph - 0.01 in   Mostly Cloudy
8:59 AM 73.0 °F - 68.0 °F 84% 29.71 in 10.0 mi SSW 6.9 mph - N/A   Scattered Clouds
9:51 AM 77.0 °F - 66.9 °F 71% 29.69 in 10.0 mi SSW 6.9 mph - N/A   Scattered Clouds
10:51 AM 80.1 °F 82.3 °F 66.9 °F 64% 29.69 in 10.0 mi SW 9.2 mph - N/A   Scattered Clouds
11:51 AM 80.1 °F 81.7 °F 64.0 °F 58% 29.68 in 10.0 mi SSW 9.2 mph - N/A   Scattered Clouds
12:51 PM 82.9 °F 85.0 °F 66.0 °F 56% 29.66 in 10.0 mi South 11.5 mph - N/A   Scattered Clouds
1:51 PM 80.1 °F 82.1 °F 66.0 °F 62% 29.65 in 6.0 mi WSW 6.9 mph - 0.01 in Rain Light Rain
1:55 PM 77.0 °F - 66.9 °F 71% 29.66 in 2.0 mi WSW 23.0 mph 38.0 mph 0.02 in Rain , Thunderstorm Heavy Thunderstorms and Rain
2:00 PM 73.9 °F - 60.1 °F 62% 29.65 in 1.2 mi SW 17.3 mph 38.0 mph 0.14 in Rain , Thunderstorm Heavy Thunderstorms and Rain
2:04 PM 72.0 °F - 60.1 °F 66% 29.65 in 3.0 mi SSE 12.7 mph 38.0 mph 0.27 in Rain , Thunderstorm Thunderstorms and Rain
2:16 PM 79.0 °F - 64.9 °F 62% 29.64 in 8.0 mi SSE 6.9 mph - 0.33 in Rain Light Rain
2:51 PM 80.1 °F 81.9 °F 64.9 °F 60% 29.62 in 10.0 mi South 5.8 mph 17.3 mph 0.33 in   Scattered Clouds
3:51 PM 82.0 °F 83.8 °F 64.9 °F 56% 29.61 in 10.0 mi South 17.3 mph 23.0 mph N/A   Scattered Clouds
4:14 PM 82.9 °F 84.4 °F 64.0 °F 53% 29.62 in 10.0 mi SSW 9.2 mph 19.6 mph N/A Thunderstorm Thunderstorm
4:51 PM 81.0 °F 83.0 °F 66.0 °F 60% 29.63 in 10.0 mi ENE 8.1 mph - N/A   Mostly Cloudy
5:34 PM 75.0 °F - 59.0 °F 57% 29.66 in 10.0 mi West 25.3 mph 35.7 mph 0.00 in Rain , Thunderstorm Light Thunderstorms and Rain
5:44 PM 72.0 °F - 61.0 °F 68% 29.67 in 10.0 mi WNW 12.7 mph 34.5 mph 0.00 in Rain , Thunderstorm Light Thunderstorms and Rain
5:51 PM 71.6 °F - 60.8 °F 69% 29.67 in 10.0 mi West 11.5 mph - 0.00 in Thunderstorm Thunderstorm
6:14 PM 71.1 °F - 60.1 °F 68% 29.67 in 10.0 mi West 11.5 mph 16.1 mph 0.00 in   Overcast
6:51 PM 71.1 °F - 60.1 °F 68% 29.67 in 10.0 mi SW 4.6 mph - 0.00 in   Overcast
7:51 PM 70.0 °F - 61.0 °F 73% 29.67 in 10.0 mi SSE 6.9 mph - N/A   Mostly Cloudy
8:51 PM 68.0 °F - 60.1 °F 76% 29.67 in 10.0 mi South 4.6 mph - N/A   Mostly Cloudy
9:51 PM 66.9 °F - 61.0 °F 81% 29.70 in 10.0 mi SE 4.6 mph - N/A   Mostly Cloudy
10:51 PM 66.9 °F - 61.0 °F 81% 29.69 in 10.0 mi South 3.5 mph - N/A   Mostly Cloudy
11:51 PM 68.0 °F - 61.0 °F 78% 29.68 in 10.0 mi SSE 3.5 mph - N/A   Mostly Cloudy